{"data":{"norad_id":40376,"epoch":"2026-05-25T04:10:02.934048Z","epoch_age_seconds":55962,"freshness":"FRESH","line1":"1 40376U 15003A   26145.17364507  .00000382  00000+0  83027-4 0  9996","line2":"2 40376  98.1279 152.5947 0001265  88.0629 272.0718 14.63342735604250","mean_motion":14.63342735,"eccentricity":0.0001265,"inclination_deg":98.1279,"raan_deg":152.5947,"arg_perigee_deg":88.0629,"mean_anomaly_deg":272.0718,"bstar":8.3027e-5,"rev_number":60425,"period_min":98.404834736136,"perigee_km":681.50799446033,"apogee_km":683.29431061292,"semimajor_km":7060.5381525366,"source":"CELESTRAK","updated_at":"2026-05-25T13:38:12.788028Z"}}